Regional Weather Roundup
Issued by NWS Newport/Morehead, NC

Current Version | Previous Version | Text Only | Print | Product List | Glossary Off
Versions: 1 2 3 4 5 6 7 8 9 10 11 12 13 14 15 16 17 18 19 20 21 22 23 24 25 26 27 28 29 30 31 32 33 34 35 36 37 38 39 40 41 42 43 44 45 46 47 48 49 50
285 ASUS42 KMHX 241725 RWRMHX WEATHER ROUNDUP FOR EASTERN NORTH CAROLINA NATIONAL WEATHER SERVICE NEWPORT/MOREHEAD CITY NC 100 PM EDT MON JUL 24 2017 NOTE: "FAIR" INDICATES FEW OR NO CLOUDS BELOW 12,000 FEET WITH NO SIGNIFICANT WEATHER AND/OR OBSTRUCTIONS TO VISIBILITY NCZ015>017-031-032-045>047-102-103-241800- NORTH COAST CITY SKY/WX TMP DP RH WIND PRES REMARKS EDENTON FAIR 84 75 73 SW8 29.91S ELIZABETH CITY FAIR 81 78 91 SW12 29.89S KITTY HAWK FAIR 84 71 66 W7 29.89S MANTEO FAIR 85 71 63 W14 29.90S $$ NCZ045>047-081-094-103-104-241800- CENTRAL COAST CITY SKY/WX TMP DP RH WIND PRES REMARKS FRISCO FAIR 84 75 74 SW13G21 29.94R $$ NCZ095-097-098-100-101-241800- SOUTHERN COAST CITY SKY/WX TMP DP RH WIND PRES REMARKS BEAUFORT FAIR 86 80 82 SW22G28 29.93F HX 101 CEDAR ISLAND NOT AVBL JACKSONVILLE PTSUNNY 87 76 69 SW9 29.92F PINEY ISLAND PTSUNNY N/A N/A N/A SW18G28 29.91F WILMINGTON CLOUDY 87 76 69 SW9 29.93F $$ NCZ011>013-027>030-043-044-078>080-089-090>093-098-241800- COASTAL PLAIN CITY SKY/WX TMP DP RH WIND PRES REMARKS AHOSKIE N/A 82 75 79 CALM 29.89S CLINTON NOT AVBL ELIZABETHTOWN NOT AVBL GOLDSBORO CLOUDY 84 77 79 SW9 29.91S GREENVILLE FAIR 84 73 70 W5 29.93F HAVELOCK PTSUNNY 86 77 74 SW12 29.93S KENANSVILLE PTSUNNY 86 73 66 SW10 29.93S KINSTON PTSUNNY 90 73 58 SW8 29.92F NEW BERN FAIR 87 76 69 SW12G20 29.93F RICHLANDS FAIR 90 75 62 SW12 29.93S HX 100 ROCKY MOUNT FAIR 84 75 74 W9 29.91F WASHINGTON FAIR 86 74 68 SW7 29.91S WHITEVILLE NOT AVBL $$ AMZ130-135-150-152-154-156-158-170-250-252-270-ANZ085-086-088-633-658-670-241800- MARINE OBSERVATIONS STATION/POSITION TIME TEMP WIND PRES WAVE SWELL AIR SEA DIR/SP/G HT/PER HT/PER (UTC) (F) (DEG/KT/KT) (MB) (FT/S) (FT/S) CHESAPEAKE LIGHT NOT AVBL 64 E VA BEACH 1650 80 79 230/ 14/ 17 1012.1 4/ 6 2/ 9 DUCK 1700 82 61 240/ 15/ 19 1011.8 2 E DUCK 1700 70 N/A 2/10 OREGON INLET 1700 84 82 220/ 17/ 20 1012.2 13E OREGON INLT 1648 69 N/A 4/ 7 2/13 HATTERAS CG 1700 82 77 220/ 12/ 16 1013.7 DIAMOND BUOY 1650 83 84 230/ 21/ 25 1013.5 8/ 7 2/12 CAPE LOOKOUT 1700 83 230/ 14/ 18 1013.6 BEAUFORT LAB 1700 84 80 220/ 9/ 17 1013.0 30 SE NEW RVR IN 1708 81 82 250/ 17/ 25 1014.2 30 SE NEW RVR IN 1643 82 N/A 6/ 7 27 SE WRIGHTSVLE 1708 82 83 230/ 16/ 21 1014.1 5 SE WRIGHTSVLE 1708 81 81 200/ 12/ 17 1013.8 225 S CAPE HAT 1650 83 83 230/ 14/ 16 1018.5 5/ 6 2/10 41 SE CHARLESTON 1710 79 83 260/ 14/ 17 1015.6 $$

USA.gov is the U.S. government's official web portal to all federal, state and local government web resources and services.